sat.trackr.live / text

‹ back to catalog

PRAETORIAN SDA_602

NORAD 65565 · 2025-203A

PAYLOAD ACTIVE UNKNOWN

§ Identity

Operator
Country
US
Launch date
2025-09-10
Launch site
AFWTR
Launch vehicle
Mass (kg)
RCS (m²)

Purposes: military

External: N2YO · Heavens-Above · Gunter

§ Orbital elements

Epoch: 2026-05-25T02:42:05.876928Z

Period
104.02 min
Inclination
81.3048°
Eccentricity
0.0004932
Mean motion
13.84340594 rev/d
Perigee alt
944.9 km
Apogee alt
952.1 km
Semi-major
7,326.7 km
B*
6.7146e-5
RAAN
32.1433°
Arg perigee
255.8215°
Mean anomaly
104.2394°
Rev number
3,550

§ Raw data

PRAETORIAN SDA_6021 65565U 25203A   26145.11256802  .00000087  00000+0  67146-4 0  99942 65565  81.3048  32.1433 0004932 255.8215 104.2394 13.84340594 35502

JSON: /api/v1/satellites/65565 · /tle

For live sub-satellite position, see the globe view (requires WebGL).

§ Visibility from observer

Set your observer location to see the next 7 days of passes ≥ 10°. The values pass through the URL so the page stays shareable.

No JS? Fill the form by hand. The geolocation button needs JavaScript.